Location: Miss�
(46.9484°N, 0.1922°W)
Time: 06:11:40
(UTC+00:00)

Cosmos 2333 - Pass Details

Date: 02 March 2021
Orbit: 829 x 867 km, 70.9° (Epoch: 11 April)

Event Time Altitude Azimuth Distance (km) Brightness Sun altitude
Rises 20:26:34 0° 214° (SW) 3,374 7.5 -27.4°
Reaches altitude 10° 20:29:00 10° 217° (SW) 2,449 6.8 -27.8°
Maximum altitude 20:34:36 66° 300° (WNW) 922 4.5 -28.7°
Drops below altitude 10° 20:40:17 10° 23° (NNE) 2,490 6.6 -29.6°
Sets 20:42:47 0° 26° (NNE) 3,435 7.4 -30.0°
